Content
SEND FEEDBACK

Daily
Averages
Monthly
Summary
United States of America

QUITMAN, MISSISSIPPI


Home > North America > United States > Mississippi
Elevation: 246 feet     Latitude: 32 04N     Longitude: 088 43W

WEATHER
 
SELECT A DAY
Number of Records: 218,989;   Date Range: 1/1/95 - 11/26/14
 
SHARE

PRINT THIS DATA

[ ← Previous Day ]
WEATHER ALMANAC - JANUARY 31, 2013
[ Next Day → ]
[ °C ]   °F
Weather ElementAverageHighLow
Temperature42.4 °F57 °F (2:58 pm)30 °F (6:58 am)
Dewpoint30 °F35.6 °F (7:58 pm)24.1 °F (11:58 am)
Humidity67.8 %96 % (3:58 am)30 % (2:58 pm)
Barometer30.21 in30.28 in (10:58 pm)30.14 in (1:58 am)
Wind Speed5.7 mph11.5 mph (10:58 am)
Wind Gust17.3 mph (12:58 pm)
Weather ElementAverage
Visibility10 mi
Wind DirectionS (184.5 °)

Weather ElementTotal
Precipitation---
Heating Degree Days21.5 (Base 65)
Averaged from 22 records on January 31, 2013
WEATHER CONDITIONS BREAKOUT
WIND DIRECTION BREAKOUT
WEATHER BY HOUR - JANUARY 31, 2013
[ °C ]   °F
Local TimeTemperatureDewpointHumidityBarometerVisibilityWind DirectionWind SpeedGust SpeedPrecipitationEventsConditions
1:58 AM35.1 °F30.9 °F85 %30.14 in10.0 miSW (220°)3.5 mphClear
2:58 AM33.1 °F30.9 °F92 %30.16 in10.0 miCalmClear
3:58 AM33.1 °F32.0 °F96 %30.18 in10.0 miSSW (210°)5.8 mphClear
4:58 AM32.0 °F30.0 °F92 %30.16 in10.0 miCalmClear
5:58 AM30.9 °F30.0 °F96 %30.16 in10.0 miCalmClear
6:58 AM30.0 °F28.9 °F96 %30.19 in10.0 miSouth (180°)3.5 mphClear
7:58 AM34.0 °F30.9 °F89 %30.22 in10.0 miCalmClear
9:58 AM46.9 °F28.9 °F50 %30.27 in10.0 miWNW (300°)9.2 mphClear
10:58 AM50.0 °F27.0 °F41 %30.25 in10.0 miNW (310°)11.5 mphClear
11:58 AM52.0 °F24.1 °F34 %30.24 in10.0 miWest (270°)10.4 mphClear
12:58 PM54.0 °F24.1 °F31 %30.22 in10.0 miWNW (300°)9.2 mph17.3 mphClear
1:58 PM55.9 °F26.1 °F32 %30.20 in10.0 miWNW (290°)9.2 mphClear
2:58 PM57.0 °F26.1 °F30 %30.19 in10.0 miWNW (290°)9.2 mph16.1 mphClear
3:58 PM55.9 °F25.0 °F30 %30.19 in10.0 miWSW (250°)11.5 mph17.3 mphClear
4:58 PM54.0 °F25.0 °F33 %30.19 in10.0 miSW (230°)4.6 mphClear
5:58 PM45.0 °F35.1 °F68 %30.21 in10.0 miCalmClear
6:58 PM41.0 °F35.1 °F79 %30.22 in10.0 miSSW (200°)6.9 mphClear
7:58 PM41.0 °F35.6 °F81 %30.22 in10.0 miSW (220°)3.5 mphClear
8:58 PM39.9 °F34.0 °F79 %30.25 in10.0 miSSW (200°)5.8 mphClear
9:58 PM37.9 °F33.1 °F83 %30.27 in10.0 miSSW (200°)8.1 mphClear
10:58 PM37.0 °F33.1 °F86 %30.28 in10.0 miSSW (200°)5.8 mphClear
11:58 PM36.0 °F33.1 °F89 %30.28 in10.0 miSouth (190°)6.9 mphClear
Hourly data recorded from KMEI, located miles away from Quitman, Mississippi







STORIES FROM OUR PARTNERS